Myrtle Beach, SC

1:03 PM EST on February 23, 2017 (GMT -0500)
Myrtle Beach International

Weather History for KMYR - August, 2013

Change the Weather History Date:

Saturday, August 31, 2013

  Actual Average Record
Temperature  
Mean Temperature 78 °F -  
Max Temperature 84 °F 82 °F 97 °F (1993)
Min Temperature 71 °F 68 °F 61 °F (1951)
Cooling Degree Days 12    
Growing Degree Days 28 (Base 50)    
Moisture  
Dew Point 72 °F    
Average Humidity 85    
Maximum Humidity 100    
Minimum Humidity 70    
Precipitation  
Precipitation 0.00 in - - ()
Sea Level Pressure  
Sea Level Pressure 29.95 in    
Wind  
Wind Speed 5 mph (East)    
Max Wind Speed 10 mph    
Max Gust Speed -    
Visibility 8 miles    
Events Fog    
Averages and records for this station are not official NWS values.
T = Trace of Precipitation, MM = Missing Value Source: NWS Daily Summary

Daily Weather History Graph

Daily Weather History Graph

Search for Another Location

Airport or City:

Trip Planner

Search our weather history database for the weather conditions in past years. The results will help you decide how hot, cold, wet, or windy it might be!

Date:

Astronomy

Aug. 31, 2013 Rise Set
Actual Time 6:49 AM EDT 7:42 PM EDT
Civil Twilight 6:23 AM EDT 8:07 PM EDT
Nautical Twilight 5:53 AM EDT 8:37 PM EDT
Astronomical Twilight 5:22 AM EDT 9:08 PM EDT
Moon 2:24 AM EDT (8/31) 4:32 PM EDT (8/31)
Length of Visible Light 13h 44m
Length of Day
12h 53m
Waning Crescent, 21% of the Moon is Illuminated
Aug 31
Waning Crescent
Sep 5
New
Sep 12
First Quarter
Sep 19
Full
Sep 26
Last Quarter

Hourly Weather History & Observations

Time (EDT) Temp. Heat Index Dew Point Humidity Pressure Visibility Wind Dir Wind Speed Gust Speed Precip Events Conditions
12:15 AM 77.0 °F - 73.4 °F 89% 29.96 in 10.0 mi ENE 4.6 mph - N/A   Clear
12:35 AM 77.0 °F - 73.4 °F 89% 29.96 in 10.0 mi East 5.8 mph - N/A   Partly Cloudy
12:55 AM 77.0 °F - 73.4 °F 89% 29.96 in 10.0 mi ENE 6.9 mph - N/A   Clear
1:15 AM 77.0 °F - 73.4 °F 89% 29.95 in 10.0 mi East 6.9 mph - N/A   Clear
1:35 AM 77.0 °F - 73.4 °F 89% 29.96 in 10.0 mi ENE 4.6 mph - N/A   Clear
1:55 AM 77.0 °F - 73.4 °F 89% 29.95 in 10.0 mi ENE 4.6 mph - N/A   Clear
2:15 AM 77.0 °F - 73.4 °F 89% 29.95 in 10.0 mi ENE 5.8 mph - N/A   Clear
2:35 AM 73.4 °F - 71.6 °F 94% 29.95 in 10.0 mi North 3.5 mph - N/A   Clear
2:55 AM 73.4 °F - 69.8 °F 88% 29.95 in 10.0 mi Calm Calm - N/A   Clear
3:15 AM 73.4 °F - 71.6 °F 94% 29.94 in 10.0 mi Calm Calm - N/A   Partly Cloudy
3:35 AM 71.6 °F - 71.6 °F 100% 29.94 in 10.0 mi Calm Calm - N/A   Clear
3:55 AM 71.6 °F - 71.6 °F 100% 29.94 in 10.0 mi North 4.6 mph - N/A   Clear
4:15 AM 71.6 °F - 69.8 °F 94% 29.95 in 7.0 mi NNW 3.5 mph - N/A   Clear
4:35 AM 71.6 °F - 68.0 °F 88% 29.94 in 7.0 mi NNW 3.5 mph - N/A   Clear
4:55 AM 71.6 °F - 68.0 °F 88% 29.95 in 9.0 mi North 4.6 mph - N/A   Clear
5:15 AM 71.6 °F - 69.8 °F 94% 29.95 in 1.5 mi North 4.6 mph - N/A   Mostly Cloudy
5:35 AM 71.6 °F - 69.8 °F 94% 29.95 in 0.2 mi North 5.8 mph - N/A   Overcast
5:50 AM 71.6 °F - 69.8 °F 94% 29.94 in 0.2 mi Variable 5.8 mph - N/A Fog Fog
5:55 AM 71.6 °F - 71.6 °F 100% 29.95 in 0.2 mi North 4.6 mph - N/A   Overcast
6:45 AM 71.6 °F - 71.6 °F 100% 29.96 in 0.2 mi Variable 5.8 mph - N/A Fog Fog
7:50 AM 73.4 °F - 71.6 °F 94% 29.97 in 0.5 mi Calm Calm - N/A Fog Fog
8:55 AM 77.0 °F - 73.4 °F 89% 29.97 in 10.0 mi Calm Calm - N/A   Clear
9:50 AM 82.4 °F 88.2 °F 73.4 °F 74% 29.99 in 10.0 mi Calm Calm - N/A   Partly Cloudy
10:45 AM 84.2 °F 90.9 °F 73.4 °F 70% 29.99 in 10.0 mi SE 8.1 mph - N/A   Partly Cloudy
11:45 AM 84.2 °F 90.9 °F 73.4 °F 70% 29.99 in 10.0 mi SE 9.2 mph - N/A   Scattered Clouds
12:45 PM 84.2 °F 90.9 °F 73.4 °F 70% 29.98 in 10.0 mi SE 10.4 mph - N/A   Scattered Clouds
1:45 PM 84.2 °F 90.9 °F 73.4 °F 70% 29.96 in 10.0 mi SE 9.2 mph - N/A   Scattered Clouds
2:45 PM 84.2 °F 90.9 °F 73.4 °F 70% 29.94 in 10.0 mi SE 8.1 mph - N/A   Scattered Clouds
3:50 PM 84.2 °F 90.9 °F 73.4 °F 70% 29.92 in 10.0 mi SSE 8.1 mph - N/A   Scattered Clouds
4:50 PM 84.2 °F 90.9 °F 73.4 °F 70% 29.91 in 10.0 mi SSE 9.2 mph - N/A   Scattered Clouds
6:50 PM 82.4 °F 88.2 °F 73.4 °F 74% 29.91 in 10.0 mi South 8.1 mph - N/A   Clear
7:50 PM 80.6 °F 85.4 °F 73.4 °F 79% 29.92 in 10.0 mi South 6.9 mph - N/A   Clear
8:45 PM 80.6 °F 85.4 °F 73.4 °F 79% 29.92 in 10.0 mi South 6.9 mph - N/A   Clear
9:45 PM 80.6 °F 85.4 °F 73.4 °F 79% 29.94 in 10.0 mi South 6.9 mph - N/A   Clear
10:55 PM 80.6 °F 85.4 °F 73.4 °F 79% 29.95 in 10.0 mi SSW 8.1 mph - N/A   Clear
11:15 PM 78.8 °F - 73.4 °F 83% 29.95 in 10.0 mi SW 4.6 mph - N/A   Clear
11:35 PM 78.8 °F - 73.4 °F 83% 29.94 in 10.0 mi Calm Calm - N/A   Clear
11:55 PM 78.8 °F - 73.4 °F 83% 29.94 in 10.0 mi SSW 4.6 mph - N/A   Clear